www.pogodaiklimat.ru

Погода и климат >> Архив погоды >> Россия >> Свердловская область >> Бурмантово


ПОГОДА в Бурмантово

  • Прогноз погоды в Бурмантово
  • Монитор погоды в Бурмантово

АРХИВ ПОГОДЫ в Бурмантово

Время (UTC), дата Ветер
(напр.,м/с)
 
Видим.   Явления Облачность Т
(С)
Тd
(С)
f
(%)
Тe
(С)
Тes
(С)
Комфортность P
(гПа)
Po
(гПа)
Тmin
(С)
Tmax
(С)
R
(мм)
R24
(мм)
S
(см)
06 13.09 З 2 50 км {ливн. осадки} 10/8 300 м
[Cb cap Ac trans]
+17.0 +13.8 81 +17 +18 1015.7 1000.4
09 13.09 З 5 50 км 10/5 300 м
[Cb cap Ci sp]
+17.7 +14.4 81 +17 +18 1015.5 1000.2
12 13.09 З 2 20 км слаб. ливневой дождь 10/10 300 м
[Cb cap]
+15.3 +14.4 94 +15 +15 1015.2 999.8
15 13.09 штиль 0 20 км 10/10 300 м
[Cb cap]
+12.5 +11.2 92 +12 +12 1014.3 998.8 +18.0 0.0
00 14.09 З 2 10 км {ливн. осадки} 9/9 300 м
[Cb cap]
+8.4 +8.0 97 +6 +6 1011.1 995.5
03 14.09 З 2 50 км 8/3 600 м
[Sc Ci fib]
+9.3 +8.9 97 +7 +8 1011.9 996.4 +8.1 0.4
09 14.09 штиль 0 50 км в посл. час дождь 10/3 600 м
[Sc As op]
+16.1 +12.5 79 +16 +17 1009.5 994.3
12 14.09 ЮВ 2 50 км {дождь} 10/5 300 м
[Cb cap As trans Ci sp]
+16.5 +13.5 82 +17 +17 1008.7 993.5
15 14.09 штиль 0 10 км 10/8 300 м
[Cb cap Ac trans]
+14.1 +12.5 90 +14 +14 1008.1 992.8 +17.1 0.0
18 14.09 штиль 0 10 км 10/10 300 м
[Cb cap]
+11.0 +10.0 94 +10 +10 1006.2 990.8
21 14.09 штиль 0 10 км 10/0 300 м
[Ac cast Cc]
+10.2 +9.8 97 +9 +9 1004.9 989.4
00 15.09 Ю 3 10 км 10/0
[Ac und]
+12.3 +10.2 87 +11 +11 1004.7 989.4
03 15.09 ЮВ 2 50 км 10/4 600 м
[Sc Ac trans]
+10.1 +9.7 97 +8 +9 1004.9 998.4 +0.9
06 15.09 ЮВ 3 50 км 10/6 600 м
[Sc Ac trans]
+13.3 +11.2 87 +12 +12 1004.7 989.4
09 15.09 ЮВ 2 50 км 10/4 600 м
[Sc Ac trans]
+10.1 +9.7 97 +8 +10 1004.9 998.4 +9.2
12 15.09 ЮЗ 3 50 км 10/10 300 м
[Cb cap]
+13.5 +6.9 64 +12 +12 1004.0 988.8
15 15.09 ЮЗ 2 10 км 8/4 600 м
[Sc Ci fib]
+11.5 +10.5 94 +10 +10 1003.6 988.2 +15.8
18 15.09 штиль 0 10 км 9/9 600 м
[Sc]
+7.3 +6.2 93 +6 +6 1002.3 986.8
21 15.09 штиль 0 10 км ясно +4.1 +2.9 92 +3 +3 1002.4 986.7
00 16.09 штиль 0 10 км 3/0
[Ci fib]
+1.8 +0.2 89 +1 +1 1002.9 987.0
03 16.09 Ю 3 50 км 4/0
[Ci fib]
+6.0 +4.1 88 +3 +3 1002.7 987.1 +0.4
06 16.09 ЮЗ 4 50 км 8/8 600 м
[Cu Sc]
+10.5 +1.7 54 +8 +9 1001.8 986.4
09 16.09 ЮЗ 6 50 км 8/5 600 м
[Cu med, cong Ci fib]
+12.7 -1.2 38 +11 +12 1001.1 985.9
12 16.09 З 5 50 км 8/5 600 м
[Sc diur, vesp Ci fib]
+12.6 -1.3 38 +11 +11 1000.4 985.1
15 16.09 штиль 0 10 км ясно +4.2 +1.9 85 +3 +3 999.6 983.9 +13.1
18 16.09 штиль 0 10 км ясно -0.2 -0.8 96 -2 -2 998.5 982.6
21 16.09 штиль 0 10 км ясно -1.1 -1.4 98 -2 -2 997.4 981.5
00 17.09 штиль 0 10 км 8/0
[Cs]
-1.2 -1.8 96 -3 -3 995.8 979.9
03 17.09 ЮЗ 1 50 км 10/0
[As op]
+0.8 +0.3 96 -1 -1 994.8 979.0 -2.1
09 17.09 З 5 50 км 10/6 300 м
[Sc Ci fib]
+10.9 +7.8 81 +8 +9 993.6 978.3
12 17.09 З 4 50 км {ливн. осадки} 8/6 300 м
[Cb cap Ci ing]
+11.8 +5.8 67 +10 +10 993.8 978.6
15 17.09 штиль 0 10 км 8/8 600 м
[Sc]
+7.3 +6.6 95 +6 +6 995.0 979.6 +12.2 1
21 17.09 штиль 0 10 км 3/0
[Ci fib]
+0.7 +0.2 96 -1 -1 995.8 980.0
00 18.09 ЮВ 3 10 км в посл. час ливневой дождь 8/5 300 м
[Cb cap Ac trans]
+5.7 +5.2 97 +2 +2 994.7 979.2
03 18.09 ЮВ 2 20 км 10/10 300 м
[Cb cap]
+5.8 +4.9 94 +3 +3 994.2 978.7 +0.7 1
09 18.09 ЮВ 5 50 км 9/9 300 м
[Cb cap]
+12.0 +6.1 67 +10 +10 994.0 978.8
15 18.09 ЮВ 3 10 км 6/6 300 м
[Sc diur, vesp]
+7.3 +5.0 85 +4 +4 995.6 980.2 +13.4
21 18.09 штиль 0 10 км 3/0
[Ci fib]
+1.4 +0.9 96 0 0 995.7 980.0
03 19.09 штиль 0 50 км 6/0
[Ac trans Ci fib]
+2.8 +1.2 89 +2 +2 995.7 980.0 +0.1
09 19.09 ЮЗ 2 50 км 10/10 600 м
[Sc]
+11.0 +3.5 60 +10 +10 994.8 979.6
15 19.09 СЗ 2 10 км 9/9 600 м
[Sc]
+8.9 +3.6 69 +7 +7 993.6 978.3 +11.8
21 19.09 СЗ 4 10 км 4/0
[Ac trans]
+3.8 +0.7 80 -1 -1 994.0 978.4
00 20.09 З 5 10 км 10/0
[Ac und]
+4.2 -1.3 67 -0 -0 996.2 980.6
03 20.09 СЗ 4 50 км 8/5 600 м
[Sc Ci fib]
+4.0 -1.2 69 -0 0 997.8 982.2 +3.3

 

Местоположение метеостанции Бурмантово (Свердловская область, Россия): широта 61.28 долгота 60.47 высота над уровнем моря 128 м.

В архиве по умолчанию представлена погода в Бурмантово за последнюю неделю. Архивные данные за месяц целиком и за предыдущие месяцы, начиная с января 2011 года, Вы можете получить, выбрав интересующий диапазон дат из раскрывающегося списка и нажав кнопку "Ввод!".


*Определитесь, кто Вы:
робот инопланетянин человек

Внимание! Время в таблицах - всемирное. Для получения местного времени необходимо прибавить поправку, которая равна 5 ч.

Смотрите также архив погоды в соседних городах и на ближайших метеорологических станциях:

Погода в Ивделе (Свердловская область, Россия) (67 км)
Погода в Атымье (Свердловская область, Россия) (98 км)
Погода в Североуральске (Свердловская область, Россия) (120 км)
Погода в Няксимволе (Ханты-Мансийский АО, Россия) (130 км)
Погода в Агирише (Ханты-Мансийский АО, Россия) (153 км)
Погода в Югорске (Ханты-Мансийский АО, Россия) (155 км)
Погода в Карпинске (Свердловская область, Россия) (172 км)
Погода в Серове (Свердловская область, Россия) (187 км)
Погода в Якше (Коми, Россия) (200 км)
Погода в Кытлыме (Свердловская область, Россия) (210 км)

Пояснения к столбцам:

Ветер - указаны скорость ветра в м/с - средняя за 10 мин, порывы в срок и между сроками (в фигурных скобках) и направление, откуда дует ветер: С - северный, СВ - северо-восточный, В - восточный, ЮВ - юго-восточный, Ю - южный, ЮЗ - юго-западный, З - западный, СЗ - северо-западный.
Видимость - горизонтальная дальность видимости в метрах или километрах. При видимости от 1 до 10 км при отсутствии осадков обычно наблюдается дымка, при ухудшении видимости до 1 км и менее - туман. В сухую погоду видимость может ухудшаться дымом, пылью или мглою.
Явления - указаны атмосферные явления, наблюдавшиеся в срок или в последний час перед сроком; фигурными скобками обозначены явления, наблюдавшиеся между сроками (за 1-3 часа до срока); квадратными скобками обозначены град или гололедные отложения с указанием их диаметра в мм.
Облачность - указаны через наклонную черту общая и нижняя облачность в баллах и высота нижней границы облаков в метрах; квадратными скобками обозначены формы облаков: Ci - перистые, Cs - перисто-слоистые, Cc - перисто-кучевые, Ac - высококучевые, As - высокослоистые, Sc - слоисто-кучевые, Ns - слоисто-дождевые, Cu - кучевые, Cb - кучево-дождевые. Подробнее классификацию облаков см. в Атласе облаков (PDF).
T - Температура воздуха - температура, измеренная на высоте 2 м над землей.
Td - Температура точки росы - температура, при понижении до которой содержащийся в воздухе водяной пар достигнет насыщения.
f - Относительная влажность воздуха - влажноcть воздуха, измеренная на высоте 2 м над землей.
Te - Эффективная температура - температура, которую ощущает одетый по сезону человек в тени. Характеристика душности погоды. При расчете учитывается влияние влажности воздуха и скорости ветра на теплоощущения человека.
Tes - Эффективная температура на солнце - температура, которую ощущает человек, с поправкой на солнечный нагрев. Характеристика знойности погоды. Зависит от высоты солнца над горизонтом, облачности и скорости ветра. Ночью, в пасмурную погоду, а также при ветре 12 м/с и более поправка равна нулю.
P - Атмосферное давление - приведенное к уровню моря атмосферное давление.
Po - Атмосферное давление - измеренное на уровне метеостанции атмосферное давление.
Tmin - Минимальная температура - минимум температуры воздуха на высоте 2 м над землей.
Tmax - Максимальная температура - максимум температуры воздуха на высоте 2 м над землей.
R - Количество осадков - Количество выпавших осадков за период времени, мм. При наведении курсора мыши на число - период времени, за который выпало указанное количество осадков.
R24 - Количество осадков - Количество выпавших осадков за 24 часа, мм.
S - Снежный покров - Высота снежного покрова, см. При наведении курсора мыши на число - состояние снежного покрова и степень покрытия местности в баллах.